Location: Dąbrówka
(52.2799°N, 15.8070°E)
Time: 20:22:30
(UTC+02:00)

AO-7 - Visible Passes

Search period start: 24 June 2019 00:00
Search period end: 04 July 2019 00:00
Orbit: 1440 x 1459 km, 101.7° (Epoch: 24 June)

Date Brightness Start Highest point End Pass type
(mag) Time Alt. Az. Time Alt. Az. Time Alt. Az.
24 Jun ? 03:29:54 10° NE 03:36:56 29° E 03:43:56 10° SSE visible
25 Jun ? 02:32:30 10° ENE 02:35:39 12° E 02:38:48 10° ESE visible
26 Jun ? 03:23:02 10° NE 03:29:49 26° E 03:36:33 10° SE visible
27 Jun ? 02:26:30 10° ENE 02:28:27 11° ENE 02:30:23 10° E visible
28 Jun ? 03:16:11 10° NE 03:22:41 24° E 03:29:08 10° SE visible
30 Jun ? 03:09:22 10° NE 03:15:33 22° E 03:21:41 10° SE visible
02 Jul ? 03:02:34 10° NE 03:08:23 20° E 03:14:10 10° SE visible
